Regional Weather Roundup
Issued by NWS

Home | Current Version | Previous Version | Text Only | Print | Product List | Glossary On
Versions: 1 2 3 4 5 6 7 8 9 10 11 12 13 14 15 16 17 18 19 20 21 22 23 24 25 26 27 28 29 30 31 32 33 34 35 36 37 38 39 40 41 42 43 44 45 46 47 48 49 50
000
ASCA44 KEWX 070120
RWRMX

LATIN AMERICA AND CARIBBEAN REGIONAL WEATHER ROUNDUP
NATIONAL WEATHER SERVICE AUSTIN/SAN ANTONIO TX
800 PM CDT WED MAY 06 2015

NOTE: "FAIR" INDICATED FEW OR NO CLOUDS BELOW 12,000 FEET WITH NO
SIGNIFICANT WEATHER AND/OR OBSTRUCTIONS TO VISIBILITY.

BAJA CALIFORNIA

CITY           SKY/WX    TMP DP  RH WIND       PRES   REMARKS
LORETO         MOSUNNY   77  64  65 S6        29.76S
LA PAZ         SUNNY     79  46  31 SW10      29.85R
MEXICALI       SUNNY     84  37  18 CALM      29.65F
S.J. DEL CABO  CLEAR     79  55  44 SE10      29.82S
TIJUANA        CLOUDY    61  50  67 W13       29.90R

NORTHWESTERN MEXICO

CITY           SKY/WX    TMP DP  RH WIND       PRES   REMARKS
CULIACAN       CLOUDY    82  66  57 S12       29.84S
DURANGO        MOCLDY    75  39  27 SW21      30.09R
GUAYMAS        SUNNY     81  64  57 S7        29.74F
HERMOSILLO     SUNNY     84  52  32 S20       29.79S
CD. JUAREZ     CLEAR     82  39  21 SW12      29.74F
LOS MOCHIS     PTCLDY    77  59  53 S15       29.82S
OBREGON        SUNNY     79  50  36 SW13      29.77R

NORTHEASTERN MEXICO

CITY           SKY/WX    TMP DP  RH WIND       PRES   REMARKS
CHIHUAHUA      PTCLDY    88  25  10 S14       29.79F
MATAMOROS      MOCLDY    79  73  83 E12       29.85S
MONTERREY      CLEAR     81  68  65 SE7       29.78S
NUEVO LAREDO   PTCLDY    84  72  65 SE12      29.78R
REYNOSA        PTCLDY    79  68  69 E14       29.79F
SALTILLO       CLEAR     75  61  60 N17       29.96R
TORREON        PTCLDY    95  30  10 NE6       29.79F
CD. VICTORIA   CLOUDY    82  70  65 S6        29.80R

WESTERN MEXICO

CITY           SKY/WX    TMP DP  RH WIND       PRES   REMARKS
AGUASCALIENTES PTCLDY    70  37  30 NW6       30.16R
COLIMA         CLEAR     79  64  61 W12       29.92R
DEL BAJIO      MOCLDY    70  54  56 SE10      30.22R
GUADALAJARA    PTCLDY    82  39  21 NW16      30.05S
MANZANILLO     CLEAR     79  73  83 W9        29.76R
MAZATLAN       MOCLDY    77  64  65 SW10      29.84R
P. VALLARTA    CLEAR     79  70  73 W3        29.84F
URUAPAN          N/A    N/A N/A N/A MISG        N/A
ZACATECAS      MOCLDY    66  45  45 SW17      30.20R

CENTRAL MEXICO

CITY           SKY/WX    TMP DP  RH WIND       PRES   REMARKS
MEXICO CITY    LGT RAIN  59  50  72 NE29      30.30
MORELIA        MOCLDY    61  57  88 E5        30.16F
POZA RICA      CLOUDY    82  75  78 E12       29.85R
PUEBLA         CLOUDY    61  48  63 N12       30.30R
QUERETARO      CLOUDY    66  54  63 E14       30.25R
S. LUIS POTOSI   N/A    N/A N/A N/A MISG        N/A
TAMPICO        MOCLDY    79  73  83 SE9       29.83R
TOLUCA         MOCLDY    59  46  63 SE3       30.32R

SOUTHERN MEXICO

CITY           SKY/WX    TMP DP  RH WIND       PRES   REMARKS
ACAPULCO       CLEAR     84  75  74 W12       29.76R HX  92
OAXACA         CLOUDY    77  52  41 S8        30.08R
VERACRUZ       CLOUDY    82  73  74 E6        29.80R
ZIHUATANEJO    PTCLDY    84  73  70 CALM      29.78R HX  91

YUCATAN PENINSULA

CITY           SKY/WX    TMP DP  RH WIND       PRES   REMARKS
CAMPECHE       CLEAR     86  75  70 N12G23    29.78R HX  95
CANCUN         MOCLDY    81  75  83 E6        29.93S
CHETUMAL       PTCLDY    82  73  74 E12       29.87R
CD. DEL CARMEN CLEAR     86  77  74 N12       29.78R HX  97
COZUMEL        PTCLDY    77  73  88 CALM      29.93R
MERIDA         PTCLDY    88  70  55 NE5       29.83R HX  92
MINATITLAN     PTCLDY    82  68  61 N12       29.73R
TAPACHULA      PTCLDY    86  79  79 CALM      29.80R HX  99
TUX. GUTIERREZ PTCLDY    86  66  51 NW16      29.79R
VILLAHERMOSA   CLEAR     88  68  51 E6        29.79R HX  91

CENTRAL AMERICA

CITY           SKY/WX    TMP DP  RH WIND       PRES   REMARKS

CARIBBEAN

CITY           SKY/WX    TMP DP  RH WIND       PRES   REMARKS
ARUBA          PTCLDY    81  73  78 E24       29.89R
CURACAO        PTCLDY    81  73  78 E15       29.94R
KINGSTON       PTCLDY    84  70  61 SE22      29.92R
NASSAU         PTCLDY    75  70  83 VRB2      30.05R
SAN JUAN       PTCLDY    81  72  74 E10       30.07R
SANTO DOMINGO  PTCLDY    79  73  83 SE9       30.00R
ST. CROIX      CLOUDY    81  72  74 E14       30.06R
ST. KITTS      PTCLDY    81  70  69 E16       30.06S
ST. MAARTEN    PTCLDY    81  70  69 E8        30.06S
ST. THOMAS     CLOUDY    82  70  65 E12       30.06R

$$



USA.gov is the U.S. government's official web portal to all federal, state and local government web resources and services.